Location: *
(47.6569°N, 7.4256°E)
Time: 22:36:37
(UTC+00:00)

NOAA 11 - Pass Details

Date: 14 December 2019
Orbit: 833 x 849 km, 98.4° (Epoch: 18 January)

Event Time Altitude Azimuth Distance (km) Brightness Sun altitude
Rises 17:44:51 0° 153° (SSE) 3,385 7.2 -20.2°
Reaches altitude 10° 17:47:13 10° 150° (SSE) 2,456 6.4 -20.6°
Maximum altitude 17:52:35 62° 71° (ENE) 952 4.1 -21.5°
Drops below altitude 10° 17:58:00 10° 352° (N) 2,483 6.6 -22.4°
Sets 18:00:24 0° 349° (N) 3,424 7.4 -22.8°
